Location: Fressies
(50.2559°N, 3.1945°E)
Time: 22:33:53
(UTC+00:00)

Daily predictions for brighter satellites

Satellite Brightness Start Highest point End
(mag) Time Altitude Azimuth Time Altitude Azimuth Time Altitude Azimuth
Cosmos 2151 Rocket 3.7 17:26:07 10° N 17:30:33 54° ENE 17:34:57 10° SSE
SL-16 R/B 3.7 17:26:41 10° N 17:30:35 18° NE 17:34:28 10° ENE
Cosmos 1814 Rocket 4.1 17:27:20 10° S 17:32:33 65° ESE 17:37:44 10° NNE
Cosmos 2227 Rocket 3.9 17:32:23 10° ESE 17:33:47 11° E 17:35:11 10° E
SAR-Lupe-1 4.2 17:32:19 10° SSE 17:35:47 53° ENE 17:39:17 10° N
ATLAS 5 CENTAUR R/B 3.1 17:33:23 10° NW 17:37:28 43° SW 17:42:27 10° SSE
Cosmos 1607 4.0 17:31:38 10° SSW 17:37:40 64° ESE 17:43:48 10° NE
Cosmos 1125 Rocket 3.6 17:32:39 10° NNW 17:37:44 52° ENE 17:42:48 10° SE
Cosmos 1315 Rocket 2.6 17:33:57 10° N 17:37:45 77° ENE 17:41:33 10° SSE
Cosmos 2061 Rocket 4.1 17:31:39 10° N 17:37:59 58° ENE 17:44:11 10° SSE
ARIANE 6 FM1 Upper Stage 4.3 17:38:50 10° NNW 17:41:41 19° NNE 17:44:33 10° ENE
CZ-4 R/B 4.3 17:38:03 10° SSE 17:42:00 71° ENE 17:45:59 10° N
SL-16 R/B 3.5 17:36:13 10° N 17:42:09 50° WNW 17:48:05 10° SW
Cosmos 1455 Rocket 4.0 17:38:44 10° NNE 17:42:21 26° ENE 17:45:57 10° SE
CZ-4C R/B 1.9 17:39:26 10° SSW 17:43:33 57° SE 17:48:50 10° NE
NOSS 3-3 (C) 4.1 17:39:12 10° SSW 17:44:08 46° ESE 17:50:00 10° NE
BREEZE-M DEB (TANK) 3.3 17:40:15 10° WNW 17:44:32 74° SSW 17:50:54 10° ESE
USA 306 2.9 17:42:03 10° WNW 17:44:57 38° SW 17:46:57 10° SE
YAOGAN 1 2.6 17:42:48 10° SSE 17:46:58 56° ENE 17:51:09 10° N
Cosmos 158 Rocket 3.8 17:42:30 10° SSW 17:47:20 79° ESE 17:52:14 10° NNE
SeaSat 1 2.7 17:44:12 10° SSE 17:49:05 74° WSW 17:54:00 10° NNW
SAR-Lupe-4 3.5 17:48:20 10° SSE 17:51:55 84° ENE 17:55:30 10° NNW
NOAA 6 4.3 17:50:01 10° SE 17:54:56 48° ENE 17:59:53 10° N
Spot 4 Rocket 4.1 17:50:29 10° SSE 17:55:29 58° ENE 18:00:30 10° N
Cosmos 2228 4.2 17:52:44 10° NNE 17:55:54 20° ENE 17:59:04 10° ESE
COSMO-SKYMED 1 2.9 17:52:09 10° NNE 17:56:02 38° E 17:59:53 10° SSE
Okean 1 Rocket 3.0 17:52:25 10° N 17:56:50 65° ENE 18:01:09 10° SSE
PSLV R/B 3.7 17:53:39 10° SE 17:57:35 45° ENE 18:01:30 10° N
CZ-2D R/B 4.4 17:56:06 10° S 17:58:59 38° W 18:01:53 10° NNW
Okean 2 Rocket 3.0 17:54:45 10° N 17:59:11 79° E 18:03:33 10° SSE
USA 234 4.2 17:52:58 10° SSE 17:59:17 50° SW 18:05:39 10° WNW
Cosmos 2221 Rocket 3.8 17:55:39 10° S 17:59:58 51° E 18:04:21 10° NNE
Meteor 1-11 4.2 17:55:16 10° S 18:00:54 86° E 18:06:41 10° NNE
ARIANE 5 R/B 3.6 17:56:11 10° S 18:01:08 50° W 18:06:04 10° NNW
SPOT 5 4.2 18:00:21 12° E 18:03:21 20° ENE 18:06:58 10° NNE
BREEZE-M (TANK) 2.8 18:03:57 10° W 18:06:17 55° SSW 18:11:41 10° ESE
Cosmos 1378 Rocket 4.1 18:03:04 10° SSW 18:07:19 62° WNW 18:11:36 10° N
Radarsat Rocket 4.0 18:02:47 10° SSE 18:08:38 76° ENE 18:14:59 10° NNW
CZ-2D R/B 3.2 18:06:52 10° SSE 18:10:46 83° ENE 18:14:47 10° NNW
NOSS 3-3 (A) 3.7 18:06:25 10° SW 18:11:37 78° SE 18:17:54 10° NE
Sich 1 Rocket 3.6 18:07:47 10° N 18:12:22 86° ENE 18:16:56 10° S
Meteor 2-1 Rocket 4.5 18:11:01 10° NNW 18:16:50 80° W 18:22:43 10° S
IRAS Rocket 4.4 18:11:52 10° SE 18:17:16 51° ENE 18:22:42 10° N
Cosmos 2297 Rocket 2.3 18:12:04 10° S 18:17:33 52° ESE 18:23:02 10° NE
Tiangong 0.5 18:17:32 10° SSE 18:17:51 10° SSE 18:18:11 10° SSE
SKYMED 2 3.8 18:14:42 10° N 18:19:04 76° WNW 18:23:24 10° SSW
GP-B 4.4 18:15:07 10° SSW 18:19:16 44° W 18:23:28 10° NNW
Cosmos 1025 Rocket 3.1 18:15:44 10° SSW 18:20:02 82° W 18:24:25 10° N
Orbus 7S? 4.5 18:11:27 10° WNW 18:21:32 74° NNE 18:24:45 19° ESE
Cosmos 2150 Rocket 4.2 18:17:21 10° NNW 18:22:20 46° ENE 18:27:13 10° SE
Resurs 01 Rocket 1.6 18:18:45 10° SSE 18:23:04 62° ENE 18:27:26 10° N
Cosmos 2298 Rocket 4.3 18:19:35 10° NNW 18:24:42 46° ENE 18:29:31 11° SE
Cosmos 2346 Rocket 4.5 18:18:49 10° S 18:25:05 83° E 18:31:23 10° N
Resurs 1-3 4.2 18:21:46 10° S 18:26:00 58° W 18:30:15 10° NNW
NOSS 3-4 (A) 3.7 18:23:09 10° NW 18:29:45 77° NE 18:37:34 10° SE
Cosmos 2344 4.3 18:23:37 10° SSE 18:29:58 27° ESE 18:32:55 21° E
USA 290 4.4 18:27:18 10° WSW 18:30:02 26° WNW 18:32:48 10° N
NOSS 3-4 (C) 3.8 18:23:25 10° NW 18:30:02 77° NE 18:37:52 10° SE
Cosmos 1782 3.4 18:28:35 10° N 18:31:36 29° ENE 18:31:36 29° ENE
CRYOSAT 2 4.3 18:30:38 10° N 18:35:30 62° E 18:40:20 10° S
Helios 1A Rocket 4.4 18:39:28 15° SSE 18:39:28 15° SSE 18:40:16 10° SSE
Lacrosse 5 rocket 2.2 18:40:18 10° W 18:43:32 33° NNW 18:44:57 24° NNE
CZ-4B R/B 4.2 18:43:54 37° E 18:44:26 39° ENE 18:48:06 10° N
Cosmos 1980 4.1 18:39:32 10° NNW 18:45:09 66° WSW 18:50:44 10° SSE
Meteor 1-27 4.3 18:40:10 10° NNW 18:45:58 90° W 18:51:48 10° S
ATLAS 2AS CENTAUR R/B 4.1 18:40:46 10° WNW 18:46:35 28° NNW 18:51:31 13° NE
Cosmos 2263 Rocket 3.3 18:43:16 10° SSE 18:46:41 24° ESE 18:46:41 24° ESE
SJ-6B 2.3 18:46:46 10° SSE 18:50:12 82° ENE 18:53:40 10° NNW
Terra 3.4 18:51:39 18° NE 18:51:39 18° NE 18:53:40 10° NNE
Cosmos 2237 Rocket 2.6 18:44:55 10° NW 18:50:33 65° WSW 18:56:10 10° SSE
CARTOSAT-1 4.4 18:50:46 10° S 18:54:51 50° W 18:58:58 10° NNW
Cosmos 44 Rocket 3.3 18:55:49 10° SSW 19:00:39 59° ESE 19:02:15 40° ENE
ERS-1 Rocket 4.0 19:04:25 28° NE 19:04:25 28° NE 19:07:51 10° N
USA 267 3.7 18:59:48 23° NE 19:03:54 57° NNW 19:10:17 10° W
Cosmos 1816 Rocket 4.4 18:59:17 10° S 19:05:20 62° E 19:11:28 10° NNE
Meteor 1-31 Rocket 3.5 19:06:45 34° N 19:06:45 34° N 19:08:53 10° N
Cosmos 2034 Rocket 3.9 19:02:13 10° N 19:08:21 63° ENE 19:13:44 14° SSE
Cosmos 1072 Rocket 4.5 19:03:26 10° N 19:09:43 84° W 19:15:53 10° S
ADEOS 4.1 19:12:54 39° NE 19:12:54 39° NE 19:17:19 10° N
Cosmos 1544 Rocket 3.7 19:10:40 10° N 19:14:21 54° NE 19:14:21 54° NE
SL-16 R/B 2.1 19:10:09 10° NNW 19:15:48 66° ENE 19:17:18 47° ESE
Cosmos 1634 Rocket 4.3 19:10:36 10° N 19:16:38 44° ENE 19:17:04 43° E
Cosmos 2227 Rocket 2.1 19:11:06 10° SSW 19:16:40 65° ESE 19:18:49 37° NE
Cosmos 1570 Rocket 4.3 19:14:13 10° SW 19:19:28 66° WNW 19:24:43 10° NNE
ARIANE 6 FM1 Upper Stage 3.2 19:17:35 10° NW 19:20:45 45° N 19:20:45 45° N
Cosmos 1975 Rocket 3.1 19:18:05 10° SSW 19:22:25 74° W 19:26:46 10° N
CZ-4 R/B 2.9 19:33:01 24° N 19:33:01 24° N 19:34:38 10° NNW
CZ-4C R/B 3.3 19:27:45 10° W 19:32:05 36° NNW 19:35:03 22° NNE
DNEPR-1 R/B 4.3 19:27:21 10° NW 19:32:10 63° SW 19:34:11 38° S
Cosmos 2228 3.9 19:29:07 10° NNW 19:33:07 45° W 19:37:07 10° SSW
MetOp-B 4.4 19:39:24 51° NNE 19:39:24 51° NNE 19:43:44 10° N
Cosmos 2208 Rocket 4.4 19:34:07 10° SW 19:39:19 63° WNW 19:43:22 17° NNE
CZ-4B R/B 3.3 19:40:18 55° NNE 19:40:18 55° NNE 19:44:43 10° N
SPOT 5 3.0 19:39:23 48° S 19:40:42 73° WSW 19:45:48 10° NNW
DMSP 5D-2 F-14 4.5 19:43:35 81° E 19:43:43 82° ENE 19:49:10 10° NNW
MOS 1 4.2 19:43:59 71° ENE 19:43:59 71° ENE 19:49:32 10° NNW
CZ-4B DEB 4.1 19:43:20 62° SSE 19:44:17 88° WSW 19:49:48 10° NNW
CSL-04 Debris 4.4 19:49:11 37° S 19:51:20 66° WSW 19:56:45 10° NNW
CSL-04 Rocket 4.1 19:53:07 31° SSW 19:55:27 56° W 20:00:40 10° NNW
Resurs 01 Rocket 4.4 19:56:56 10° SW 19:59:51 17° W 20:02:47 10° NW
Cosmos 2297 Rocket 3.6 19:56:39 10° WSW 20:01:48 35° NW 20:06:06 14° NNE
Cosmos 1943 3.8 19:59:15 10° NNW 20:03:25 46° N 20:03:25 46° N
Lacrosse 5 rocket 4.1 20:17:53 10° NW 20:18:23 13° NW 20:18:23 13° NW
Tsikada Rocket 4.4 20:27:16 54° NNW 20:27:16 54° NNW 20:32:13 10° N
Terra 3.8 20:30:15 23° NNW 20:30:15 23° NNW 20:32:01 10° NNW
Cosmos 2263 Rocket 3.6 20:25:39 10° SW 20:28:28 30° SW 20:28:28 30° SW
Okean O Rocket 4.5 20:39:12 11° NNW 20:39:12 11° NNW 20:39:22 10° NNW
ATLAS 2AS CENTAUR R/B 3.9 20:33:36 10° NW 20:38:56 30° N 20:38:56 30° N
Cosmos 2344 3.5 20:35:57 10° SW 20:42:59 71° W 20:42:59 71° W
USA 267 3.9 20:47:09 49° NNW 20:47:09 49° NNW 20:52:40 10° WNW
SL-16 R/B 4.1 20:54:59 10° NW 20:59:12 24° W 20:59:12 24° W
Cosmos 2227 Rocket 3.9 20:56:15 10° WSW 21:00:43 29° NW 21:00:43 29° NW
CZ-4C R/B 4.4 21:17:38 10° NW 21:20:01 20° NNW 21:20:01 20° NNW
